Albuquerque Double Eagle, NM

8:46 PM MDT on March 26, 2017 (GMT -0600)
Double Eagle Ii

Weather History for KAEG - March, 2014

Change the Weather History Date:

Friday, March 7, 2014

  Actual Average (KABQ) Record (KABQ)
Temperature  
Mean Temperature 46 °F -  
Max Temperature 59 °F 60 °F 79 °F (1972)
Min Temperature 34 °F 31 °F 10 °F (1971)
Degree Days  
Heating Degree Days 18    
Moisture  
Dew Point 21 °F    
Average Humidity 43    
Maximum Humidity 60    
Minimum Humidity 28    
Precipitation  
Precipitation 0.00 in - - ()
Sea Level Pressure  
Sea Level Pressure 29.95 in    
Wind  
Wind Speed 10 mph (West)    
Max Wind Speed 22 mph    
Max Gust Speed 29 mph    
Visibility 10 miles    
Events      
Averages and records for this station are not official NWS values.
T = Trace of Precipitation, MM = Missing Value Source: NWS Daily Summary

Daily Weather History Graph

Daily Weather History Graph

Search for Another Location

Airport or City:

Trip Planner

Search our weather history database for the weather conditions in past years. The results will help you decide how hot, cold, wet, or windy it might be!

Date:

Astronomy

Mar. 07, 2014 Rise Set
Actual Time 6:28 AM MST 6:08 PM MST
Civil Twilight 6:03 AM MST 6:33 PM MST
Nautical Twilight 5:34 AM MST 7:02 PM MST
Astronomical Twilight 5:04 AM MST 7:32 PM MST
Moon 10:37 AM MST (3/7) 12:02 AM MST (3/7)
Length of Visible Light 12h 30m
Length of Day
11h 39m
Waxing Crescent, 42% of the Moon is Illuminated
Mar 7
Waxing Crescent
Mar 8
First Quarter
Mar 16
Full
Mar 23
Last Quarter
Mar 30
New

Hourly Weather History & Observations

Time (MST) Temp. Windchill Dew Point Humidity Pressure Visibility Wind Dir Wind Speed Gust Speed Precip Events Conditions
12:15 AM 43.9 °F 41.3 °F 18.1 °F 36% 29.97 in 10.0 mi West 4.6 mph - N/A   Scattered Clouds
12:35 AM 41.0 °F 35.8 °F 17.6 °F 39% 29.96 in 10.0 mi West 8.1 mph - N/A   Scattered Clouds
12:55 AM 40.5 °F 33.2 °F 16.5 °F 38% 29.97 in 10.0 mi WSW 12.7 mph - N/A   Scattered Clouds
1:15 AM 41.0 °F 34.7 °F 15.8 °F 36% 29.96 in 10.0 mi WSW 10.4 mph - N/A   Clear
1:35 AM 39.2 °F 31.6 °F 15.6 °F 38% 29.96 in 10.0 mi WSW 12.7 mph - N/A   Clear
1:55 AM 39.2 °F 34.2 °F 15.8 °F 39% 29.95 in 10.0 mi WSW 6.9 mph - N/A   Clear
2:15 AM 37.9 °F 32.1 °F 16.3 °F 42% 29.95 in 10.0 mi WSW 8.1 mph - N/A   Clear
2:35 AM 36.9 °F 31.4 °F 17.6 °F 46% 29.94 in 10.0 mi WSW 6.9 mph - N/A   Clear
2:55 AM 36.7 °F 30.5 °F 18.0 °F 47% 29.94 in 10.0 mi West 8.1 mph - N/A   Clear
3:15 AM 37.9 °F 32.7 °F 18.3 °F 45% 29.94 in 10.0 mi West 6.9 mph - N/A   Scattered Clouds
3:35 AM 34.3 °F 27.7 °F 17.2 °F 50% 29.94 in 10.0 mi WSW 8.1 mph - N/A   Scattered Clouds
3:55 AM 34.2 °F 26.8 °F 17.2 °F 50% 29.94 in 10.0 mi WSW 9.2 mph - N/A   Clear
4:15 AM 34.0 °F 26.6 °F 16.9 °F 50% 29.94 in 10.0 mi WSW 9.2 mph - N/A   Clear
4:35 AM 34.0 °F 26.6 °F 16.5 °F 49% 29.93 in 10.0 mi WSW 9.2 mph - N/A   Clear
5:48 AM 35.6 °F 28.6 °F 15.8 °F 44% 29.94 in 10.0 mi SW 9.2 mph - N/A   Scattered Clouds
6:48 AM 37.4 °F 30.8 °F 19.4 °F 48% 29.94 in 10.0 mi SW 9.2 mph - N/A   Mostly Cloudy
7:48 AM 42.8 °F 38.0 °F 21.2 °F 42% 29.94 in 10.0 mi SSW 8.1 mph - N/A   Mostly Cloudy
8:48 AM 48.2 °F - 19.4 °F 32% 29.95 in 10.0 mi SW 11.5 mph - N/A   Mostly Cloudy
9:48 AM 53.6 °F - 21.2 °F 28% 29.95 in 10.0 mi WSW 12.7 mph - N/A   Mostly Cloudy
10:48 AM 55.4 °F - 24.8 °F 31% 29.94 in 10.0 mi West 9.2 mph - N/A   Mostly Cloudy
11:48 AM 59.0 °F - 26.6 °F 29% 29.92 in 10.0 mi WNW 11.5 mph 23.0 mph N/A   Mostly Cloudy
12:50 PM 59.0 °F - 28.4 °F 31% 29.90 in 10.0 mi WNW 12.7 mph 21.9 mph N/A   Mostly Cloudy
1:50 PM 57.2 °F - 30.2 °F 36% 29.88 in 10.0 mi NW 19.6 mph 27.6 mph N/A   Mostly Cloudy
2:50 PM 55.4 °F - 28.4 °F 36% 29.87 in 10.0 mi WNW 21.9 mph 28.8 mph N/A   Mostly Cloudy
3:49 PM 55.4 °F - 26.6 °F 33% 29.86 in 10.0 mi WNW 21.9 mph 27.6 mph N/A   Mostly Cloudy
4:47 PM 55.4 °F - 26.6 °F 33% 29.88 in 10.0 mi WNW 21.9 mph 27.6 mph N/A   Mostly Cloudy
5:50 PM 51.8 °F - 24.8 °F 35% 29.91 in 10.0 mi WNW 21.9 mph 27.6 mph N/A   Mostly Cloudy
6:49 PM 48.2 °F - 24.8 °F 40% 29.95 in 10.0 mi NNW 15.0 mph - N/A   Mostly Cloudy
7:49 PM 44.6 °F 38.8 °F 24.8 °F 46% 29.96 in 10.0 mi NNW 11.5 mph - N/A   Clear
8:49 PM 44.6 °F 37.4 °F 24.8 °F 46% 29.98 in 10.0 mi NW 16.1 mph - N/A   Clear
9:15 PM 42.1 °F 39.2 °F 24.4 °F 50% 30.00 in 10.0 mi North 4.6 mph - N/A   Clear
9:35 PM 38.5 °F 32.1 °F 23.7 °F 55% 30.00 in 10.0 mi North 9.2 mph - N/A   Clear
9:55 PM 41.0 °F 33.9 °F 23.9 °F 51% 30.00 in 10.0 mi NNW 12.7 mph - N/A   Clear
10:15 PM 38.7 °F 32.9 °F 23.4 °F 54% 30.00 in 10.0 mi NNW 8.1 mph - N/A   Clear
10:35 PM 36.5 °F 27.8 °F 22.6 °F 57% 30.00 in 10.0 mi WNW 13.8 mph - N/A   Clear
10:55 PM 37.4 °F 28.9 °F 23.5 °F 57% 30.00 in 10.0 mi WNW 13.8 mph - N/A   Clear
11:35 PM 38.5 °F 28.9 °F 24.6 °F 58% 29.99 in 10.0 mi WNW 18.4 mph - N/A   Clear
11:55 PM 38.1 °F 28.8 °F 25.2 °F 60% 29.99 in 10.0 mi WNW 17.3 mph - N/A   Clear